When you browse on this site, cookies collect data to enhance your experience and personalize the content and advertising you see.
Visit our Privacy Policy to learn more. By continuing to use the site, you agree to this use of cookies and data.
  • In France
  • List of Countries
  • For 7 days
  • Water Temperature
  • Satellite Maps
  • Weather Map
  • Weather Widgets
  • user-avatar
    Login

    Hourly Weather Gold Coast

    Today, 23 May, Thursday

    Time Temperature Precipitation Wind Pressure Humidity
    00:00 +17°C° 0 mm 2 mps 765 mmHg 84%
    01:00 +17°C° 0 mm 2 mps 765 mmHg 84%
    02:00 +17°C° 0 mm 2 mps 765 mmHg 85%
    03:00 +17°C° 0 mm 3 mps 765 mmHg 86%
    04:00 +17°C° 0 mm 3 mps 765 mmHg 88%
    05:00 +17°C° 0 mm 3 mps 765 mmHg 88%
    06:00 +17°C° 0 mm 3 mps 765 mmHg 89%
    07:00 +17°C° 0 mm 3 mps 765 mmHg 89%
    08:00 +19°C° 0 mm 3 mps 765 mmHg 80%
    09:00 +21°C° 0 mm 3 mps 765 mmHg 71%
    10:00 +23°C° 0 mm 4 mps 765 mmHg 62%
    11:00 +23°C° 0.1 mm 4 mps 765 mmHg 60%
    12:00 +25°C° 0.1 mm 4 mps 765 mmHg 59%
    13:00 +25°C° 0.1 mm 4 mps 764 mmHg 57%
    14:00 +25°C° 0.1 mm 3 mps 764 mmHg 61%
    15:00 +24°C° 0.1 mm 3 mps 764 mmHg 65%
    16:00 +22°C° 0.1 mm 3 mps 764 mmHg 69%
    17:00 +21°C° 0.1 mm 3 mps 764 mmHg 75%
    18:00 +19°C° 0.1 mm 3 mps 764 mmHg 81%
    19:00 +18°C° 0.1 mm 2 mps 764 mmHg 87%
    20:00 +18°C° 0.3 mm 2 mps 764 mmHg 88%
    21:00 +18°C° 0.3 mm 2 mps 765 mmHg 89%
    22:00 +17°C° 0.3 mm 2 mps 765 mmHg 90%
    23:00 +17°C° 0.4 mm 2 mps 764 mmHg 90%

    Tomorrow, 24 May, Friday

    Time Temperature Precipitation Wind Pressure Humidity
    00:00 +17°C° 0.4 mm 2 mps 764 mmHg 90%
    01:00 +17°C° 0.4 mm 2 mps 764 mmHg 91%
    02:00 +17°C° 0.1 mm 2 mps 764 mmHg 91%
    03:00 +17°C° 0.1 mm 3 mps 764 mmHg 91%
    04:00 +17°C° 0.1 mm 3 mps 764 mmHg 91%
    05:00 +17°C° 0 mm 3 mps 764 mmHg 92%
    06:00 +16°C° 0 mm 3 mps 764 mmHg 92%
    07:00 +16°C° 0 mm 3 mps 764 mmHg 92%
    08:00 +18°C° 0 mm 3 mps 764 mmHg 82%
    09:00 +20°C° 0 mm 3 mps 764 mmHg 72%
    10:00 +24°C° 0 mm 3 mps 764 mmHg 62%
    11:00 +24°C° 0 mm 3 mps 763 mmHg 59%
    12:00 +25°C° 0 mm 3 mps 763 mmHg 56%
    13:00 +25°C° 0 mm 3 mps 762 mmHg 52%
    14:00 +25°C° 0 mm 3 mps 762 mmHg 57%
    15:00 +24°C° 0 mm 3 mps 762 mmHg 61%
    16:00 +22°C° 0 mm 3 mps 761 mmHg 65%
    17:00 +21°C° 0 mm 3 mps 762 mmHg 71%
    18:00 +20°C° 0 mm 2 mps 762 mmHg 77%
    19:00 +18°C° 0 mm 2 mps 762 mmHg 84%
    20:00 +18°C° 0 mm 2 mps 763 mmHg 85%
    21:00 +17°C° 0 mm 2 mps 763 mmHg 86%
    22:00 +17°C° 0 mm 2 mps 763 mmHg 87%
    23:00 +17°C° 0 mm 2 mps 763 mmHg 88%

    Day after tomorrow, 25 May, Saturday

    Time Temperature Precipitation Wind Pressure Humidity
    00:00 +17°C° 0 mm 2 mps 762 mmHg 90%
    01:00 +16°C° 0 mm 2 mps 762 mmHg 91%
    02:00 +16°C° 0 mm 2 mps 762 mmHg 91%
    03:00 +16°C° 0 mm 2 mps 762 mmHg 91%
    04:00 +16°C° 0 mm 2 mps 761 mmHg 91%
    05:00 +16°C° 0 mm 2 mps 761 mmHg 91%
    06:00 +16°C° 0 mm 2 mps 762 mmHg 90%
    07:00 +16°C° 0 mm 2 mps 762 mmHg 89%
    08:00 +19°C° 0 mm 1 mps 762 mmHg 78%
    09:00 +22°C° 0 mm 1 mps 762 mmHg 67%
    10:00 +25°C° 0 mm 1 mps 762 mmHg 55%
    11:00 +25°C° 0 mm 1 mps 761 mmHg 53%
    12:00 +26°C° 0 mm 1 mps 760 mmHg 50%
    13:00 +26°C° 0 mm 1 mps 760 mmHg 47%
    14:00 +25°C° 0.1 mm 2 mps 759 mmHg 55%
    15:00 +24°C° 0.1 mm 2 mps 759 mmHg 62%
    16:00 +23°C° 0.1 mm 2 mps 759 mmHg 70%
    17:00 +21°C° 0.1 mm 2 mps 759 mmHg 76%
    18:00 +20°C° 0.1 mm 1 mps 760 mmHg 82%
    19:00 +19°C° 0.1 mm 1 mps 760 mmHg 88%
    20:00 +19°C° 0.1 mm 1 mps 760 mmHg 88%
    21:00 +19°C° 0.1 mm 1 mps 760 mmHg 88%
    22:00 +19°C° 0.1 mm 1 mps 760 mmHg 89%
    23:00 +18°C° 0.1 mm 1 mps 760 mmHg 90%

    26 May, Sunday

    Time Temperature Precipitation Wind Pressure Humidity
    00:00 +17°C° 0.1 mm 2 mps 760 mmHg 90%
    01:00 +17°C° 0.1 mm 2 mps 760 mmHg 91%
    02:00 +16°C° 0 mm 2 mps 759 mmHg 91%
    03:00 +16°C° 0 mm 3 mps 759 mmHg 91%
    04:00 +16°C° 0 mm 3 mps 759 mmHg 91%
    05:00 +16°C° 0 mm 3 mps 759 mmHg 89%
    06:00 +14°C° 0 mm 3 mps 760 mmHg 86%
    07:00 +14°C° 0 mm 3 mps 760 mmHg 83%
    08:00 +18°C° 0 mm 2 mps 760 mmHg 70%
    09:00 +21°C° 0 mm 2 mps 760 mmHg 58%
    10:00 +25°C° 0 mm 1 mps 760 mmHg 45%
    11:00 +26°C° 0 mm 1 mps 759 mmHg 40%
    12:00 +27°C° 0 mm 1 mps 758 mmHg 35%
    13:00 +28°C° 0 mm 1 mps 758 mmHg 29%
    14:00 +27°C° 0 mm 1 mps 757 mmHg 35%
    15:00 +25°C° 0 mm 2 mps 757 mmHg 41%
    16:00 +24°C° 0 mm 2 mps 757 mmHg 47%
    17:00 +23°C° 0 mm 2 mps 757 mmHg 52%
    18:00 +21°C° 0 mm 2 mps 758 mmHg 58%
    19:00 +21°C° 0 mm 1 mps 758 mmHg 63%
    20:00 +20°C° 0 mm 1 mps 758 mmHg 67%
    21:00 +19°C° 0 mm 2 mps 758 mmHg 72%
    22:00 +18°C° 0 mm 2 mps 759 mmHg 76%
    23:00 +17°C° 0 mm 2 mps 758 mmHg 76%

    27 May, Monday

    Time Temperature Precipitation Wind Pressure Humidity
    00:00 +17°C° 0 mm 2 mps 758 mmHg 76%
    01:00 +17°C° 0 mm 2 mps 758 mmHg 76%
    02:00 +16°C° 0 mm 2 mps 757 mmHg 71%
    03:00 +16°C° 0 mm 2 mps 757 mmHg 67%
    04:00 +16°C° 0 mm 2 mps 757 mmHg 63%
    05:00 +16°C° 0 mm 2 mps 757 mmHg 61%
    06:00 +16°C° 0 mm 3 mps 758 mmHg 58%
    07:00 +16°C° 0 mm 3 mps 758 mmHg 56%
    08:00 +19°C° 0 mm 3 mps 758 mmHg 50%
    09:00 +21°C° 0 mm 3 mps 758 mmHg 44%
    10:00 +25°C° 0 mm 2 mps 758 mmHg 38%
    11:00 +26°C° 0 mm 3 mps 757 mmHg 35%
    12:00 +27°C° 0 mm 3 mps 756 mmHg 33%
    13:00 +28°C° 0 mm 4 mps 755 mmHg 30%
    14:00 +27°C° 0 mm 3 mps 755 mmHg 33%
    15:00 +26°C° 0 mm 3 mps 755 mmHg 36%
    16:00 +25°C° 0 mm 3 mps 755 mmHg 39%
    17:00 +23°C° 0 mm 4 mps 755 mmHg 41%
    18:00 +21°C° 0 mm 5 mps 756 mmHg 42%
    19:00 +20°C° 0 mm 6 mps 757 mmHg 44%
    20:00 +19°C° 0 mm 6 mps 757 mmHg 43%
    21:00 +16°C° 0 mm 6 mps 758 mmHg 41%
    22:00 +15°C° 0 mm 6 mps 758 mmHg 40%
    23:00 +15°C° 0 mm 6 mps 758 mmHg 43%

    28 May, Tuesday

    Time Temperature Precipitation Wind Pressure Humidity
    00:00 +14°C° 0 mm 5 mps 758 mmHg 46%
    01:00 +14°C° 0 mm 5 mps 758 mmHg 49%
    02:00 +13°C° 0 mm 5 mps 758 mmHg 53%
    03:00 +12°C° 0 mm 4 mps 758 mmHg 57%
    04:00 +12°C° 0 mm 4 mps 758 mmHg 60%
    05:00 +11°C° 0 mm 3 mps 759 mmHg 63%
    06:00 +11°C° 0 mm 3 mps 759 mmHg 65%
    07:00 +10°C° 0 mm 3 mps 760 mmHg 67%
    08:00 +14°C° 0 mm 2 mps 760 mmHg 57%
    09:00 +16°C° 0 mm 2 mps 760 mmHg 48%
    10:00 +19°C° 0 mm 2 mps 760 mmHg 38%
    11:00 +21°C° 0 mm 1 mps 759 mmHg 35%
    12:00 +22°C° 0 mm 1 mps 759 mmHg 32%
    13:00 +24°C° 0 mm 1 mps 758 mmHg 28%
    14:00 +23°C° 0 mm 1 mps 758 mmHg 34%
    15:00 +21°C° 0 mm 2 mps 758 mmHg 39%
    16:00 +20°C° 0 mm 3 mps 758 mmHg 44%
    17:00 +18°C° 0 mm 2 mps 759 mmHg 51%
    18:00 +16°C° 0 mm 2 mps 759 mmHg 59%
    19:00 +14°C° 0 mm 1 mps 759 mmHg 67%
    20:00 +14°C° 0 mm 2 mps 760 mmHg 67%
    21:00 +14°C° 0 mm 2 mps 760 mmHg 68%
    22:00 +13°C° 0 mm 3 mps 760 mmHg 68%
    23:00 +12°C° 0 mm 3 mps 760 mmHg 64%
    Show more